EZY45 EDDF-EHAM

Flight info

Callsign EZY45
Flight time 0h 52m
Altitude 24000
Route MARUN8M/25C MARUN Y152 ARPEG/N0452F340 Z850 ABILU DCT NORKU NORKU2A
Aircraft 737/M-V/N

Departure

Time 2026-04-17 12:39
Airport Frankfurt Main Airport (EDDF)

Arrival

Time 2026-04-17 13:32
Airport Amsterdam Airport Schiphol (EHAM)
Time Latitude Longitude Altitude Speed Heading
2026-04-17 12:07 50.04896 8.56990 360 ft 0 kts 295°
2026-04-17 12:27 50.04892 8.57004 362 ft 3 kts 296°
2026-04-17 12:27 50.04883 8.57032 361 ft 3 kts 295°
2026-04-17 12:27 50.04875 8.57061 360 ft 3 kts 285°
2026-04-17 12:27 50.04872 8.57087 365 ft 3 kts 244°
2026-04-17 12:28 50.04877 8.57098 363 ft 1 kts 207°
2026-04-17 12:30 50.04875 8.57096 363 ft 2 kts 207°
2026-04-17 12:30 50.04810 8.57045 360 ft 18 kts 206°
2026-04-17 12:30 50.04677 8.56953 360 ft 23 kts 204°
2026-04-17 12:31 50.04522 8.56879 349 ft 22 kts 193°
2026-04-17 12:31 50.04375 8.56835 350 ft 20 kts 189°
2026-04-17 12:31 50.04280 8.56894 356 ft 14 kts 94°
2026-04-17 12:31 50.04309 8.57038 354 ft 15 kts 69°
2026-04-17 12:32 50.04350 8.57206 348 ft 17 kts 69°
2026-04-17 12:32 50.04392 8.57385 348 ft 19 kts 70°
2026-04-17 12:32 50.04438 8.57581 348 ft 19 kts 69°
2026-04-17 12:32 50.04484 8.57772 336 ft 19 kts 70°
2026-04-17 12:33 50.04531 8.57970 336 ft 19 kts 70°
2026-04-17 12:33 50.04578 8.58167 336 ft 20 kts 70°
2026-04-17 12:33 50.04622 8.58353 335 ft 16 kts 69°
2026-04-17 12:33 50.04645 8.58446 331 ft 0 kts 69°
2026-04-17 12:37 50.04595 8.58588 325 ft 2 kts 159°
2026-04-17 12:37 50.04547 8.58614 325 ft 13 kts 166°
2026-04-17 12:38 50.04474 8.58527 329 ft 14 kts 246°
2026-04-17 12:38 50.04469 8.58506 331 ft 1 kts 248°
2026-04-17 12:38 50.04427 8.58337 330 ft 46 kts 249°
2026-04-17 12:38 50.04232 8.57520 338 ft 113 kts 249°
2026-04-17 12:39 50.03895 8.56112 358 ft 163 kts 249°
2026-04-17 12:39 50.03485 8.54354 669 ft 176 kts 252°
2026-04-17 12:39 50.03075 8.52580 1197 ft 176 kts 250°
2026-04-17 12:39 50.02667 8.50902 1794 ft 163 kts 243°
2026-04-17 12:40 50.01811 8.49769 2160 ft 167 kts 199°
2026-04-17 12:40 50.00634 8.49483 2390 ft 178 kts 189°
2026-04-17 12:40 49.99424 8.49005 2752 ft 178 kts 198°
2026-04-17 12:40 49.98266 8.48408 3226 ft 176 kts 199°
2026-04-17 12:41 49.97021 8.47778 3534 ft 197 kts 198°
2026-04-17 12:41 49.95695 8.47138 4238 ft 204 kts 197°
2026-04-17 12:41 49.94297 8.46488 4886 ft 213 kts 197°
2026-04-17 12:41 49.92890 8.45771 5739 ft 211 kts 204°
2026-04-17 12:42 49.91742 8.44279 6145 ft 233 kts 237°
2026-04-17 12:42 49.91074 8.41959 6975 ft 228 kts 247°
2026-04-17 12:42 49.90577 8.39599 7630 ft 242 kts 261°
2026-04-17 12:42 49.90842 8.36846 7737 ft 278 kts 295°
2026-04-17 12:43 49.92158 8.34591 8445 ft 287 kts 328°
2026-04-17 12:43 49.93998 8.33481 9581 ft 279 kts 342°
2026-04-17 12:43 49.95910 8.32814 10374 ft 283 kts 348°
2026-04-17 12:43 49.97862 8.32219 11041 ft 290 kts 345°
2026-04-17 12:44 49.99792 8.31183 11648 ft 298 kts 335°
2026-04-17 12:44 50.01665 8.29800 12265 ft 305 kts 333°
2026-04-17 12:44 50.03649 8.28498 12833 ft 317 kts 346°
2026-04-17 12:44 50.05915 8.28383 13011 ft 337 kts 10°
2026-04-17 12:45 50.08160 8.29401 13012 ft 338 kts 18°
2026-04-17 12:45 50.10381 8.30659 13012 ft 339 kts 19°
2026-04-17 12:45 50.12609 8.31890 13012 ft 339 kts 17°
2026-04-17 12:45 50.14852 8.33034 13010 ft 339 kts 17°
2026-04-17 12:46 50.17095 8.34176 13011 ft 339 kts 17°
2026-04-17 12:46 50.19328 8.35357 13006 ft 339 kts 18°
2026-04-17 12:46 50.21560 8.36546 13008 ft 339 kts 17°
2026-04-17 12:46 50.23796 8.37721 13007 ft 339 kts 17°
2026-04-17 12:47 50.26034 8.38891 13009 ft 339 kts 17°
2026-04-17 12:47 50.28243 8.40055 13000 ft 339 kts 17°
2026-04-17 12:47 50.30476 8.41241 13000 ft 339 kts 18°
2026-04-17 12:47 50.32698 8.42457 13002 ft 339 kts 18°
2026-04-17 12:48 50.34930 8.43689 13004 ft 339 kts 18°
2026-04-17 12:48 50.37163 8.44906 13000 ft 340 kts 18°
2026-04-17 12:48 50.39398 8.46120 12998 ft 340 kts 18°
2026-04-17 12:48 50.41637 8.47342 12998 ft 340 kts 18°
2026-04-17 12:49 50.43879 8.48572 13005 ft 346 kts 18°
2026-04-17 12:49 50.46223 8.49854 13000 ft 360 kts 18°
2026-04-17 12:49 50.48624 8.51013 13006 ft 363 kts 14°
2026-04-17 12:49 50.51040 8.52157 13003 ft 363 kts 17°
2026-04-17 12:50 50.53431 8.53394 13202 ft 358 kts 17°
2026-04-17 12:50 50.55811 8.54555 13738 ft 368 kts 15°
2026-04-17 12:50 50.58309 8.55709 14252 ft 380 kts 15°
2026-04-17 12:50 50.60887 8.56927 14755 ft 391 kts 15°
2026-04-17 12:51 50.63509 8.58207 15249 ft 396 kts 15°
2026-04-17 12:51 50.66160 8.59497 15747 ft 400 kts 15°
2026-04-17 12:51 50.68840 8.60779 16246 ft 404 kts 15°
2026-04-17 12:51 50.71541 8.62072 16770 ft 407 kts 15°
2026-04-17 12:52 50.74263 8.63389 17286 ft 410 kts 15°
2026-04-17 12:52 50.77033 8.64435 17813 ft 410 kts
2026-04-17 12:52 50.79850 8.64378 18350 ft 410 kts 350°
2026-04-17 12:52 50.82630 8.63189 18847 ft 409 kts 335°
2026-04-17 12:53 50.85069 8.61000 19322 ft 409 kts 322°
2026-04-17 12:53 50.87120 8.57902 19808 ft 409 kts 310°
2026-04-17 12:53 50.88978 8.54461 20309 ft 414 kts 309°
2026-04-17 12:53 50.90839 8.50946 20813 ft 418 kts 309°
2026-04-17 12:54 50.92720 8.47408 21319 ft 422 kts 309°
2026-04-17 12:54 50.94635 8.43837 21837 ft 426 kts 309°
2026-04-17 12:54 50.96562 8.40236 22368 ft 429 kts 309°
2026-04-17 12:54 50.98494 8.36600 22893 ft 431 kts 309°
2026-04-17 12:55 51.00453 8.32970 23448 ft 434 kts 312°
2026-04-17 12:55 51.02711 8.29859 23902 ft 440 kts 323°
2026-04-17 12:55 51.05365 8.27310 23981 ft 450 kts 329°
2026-04-17 12:55 51.08098 8.24902 23982 ft 449 kts 329°
2026-04-17 12:56 51.10834 8.22484 23988 ft 450 kts 328°
2026-04-17 12:56 51.13569 8.20037 23986 ft 450 kts 328°
2026-04-17 12:56 51.16297 8.17594 23986 ft 450 kts 328°
2026-04-17 12:56 51.19036 8.15152 23988 ft 451 kts 328°
2026-04-17 12:57 51.21772 8.12713 23988 ft 450 kts 328°
2026-04-17 12:57 51.24505 8.10265 23989 ft 453 kts 328°
2026-04-17 12:57 51.27261 8.07788 23986 ft 452 kts 328°
2026-04-17 12:57 51.30008 8.05322 23998 ft 454 kts 328°
2026-04-17 12:58 51.32749 8.02861 23993 ft 451 kts 328°
2026-04-17 12:58 51.35464 8.00416 23997 ft 452 kts 328°
2026-04-17 12:58 51.38205 7.97942 23997 ft 452 kts 328°
2026-04-17 12:58 51.40925 7.95439 23998 ft 450 kts 324°
2026-04-17 12:59 51.43457 7.92503 24002 ft 449 kts 321°
2026-04-17 12:59 51.45962 7.89513 24004 ft 449 kts 321°
2026-04-17 12:59 51.48478 7.86529 24006 ft 449 kts 321°
2026-04-17 12:59 51.50994 7.83537 24007 ft 449 kts 321°
2026-04-17 13:00 51.53499 7.80542 24004 ft 449 kts 321°
2026-04-17 13:00 51.56003 7.77541 24009 ft 449 kts 321°
2026-04-17 13:00 51.58508 7.74546 24006 ft 448 kts 321°
2026-04-17 13:00 51.61010 7.71549 24001 ft 452 kts 321°
2026-04-17 13:01 51.63503 7.68558 23998 ft 439 kts 321°
2026-04-17 13:01 51.65944 7.65621 23989 ft 439 kts 320°
2026-04-17 13:01 51.68385 7.62680 23988 ft 437 kts 321°
2026-04-17 13:01 51.70821 7.59743 23987 ft 438 kts 321°
2026-04-17 13:02 51.73254 7.56807 23989 ft 437 kts 320°
2026-04-17 13:02 51.75688 7.53866 23985 ft 437 kts 320°
2026-04-17 13:02 51.78121 7.50919 23982 ft 437 kts 320°
2026-04-17 13:02 51.80553 7.47970 23978 ft 437 kts 320°
2026-04-17 13:03 51.82943 7.45072 23981 ft 426 kts 320°
2026-04-17 13:03 51.85271 7.42248 23978 ft 411 kts 320°
2026-04-17 13:03 51.87565 7.39449 23972 ft 413 kts 320°
2026-04-17 13:03 51.89080 7.37598 23975 ft 411 kts 320°
2026-04-17 13:04 51.91365 7.34811 23975 ft 412 kts 320°
2026-04-17 13:04 51.93653 7.32021 23973 ft 411 kts 320°
2026-04-17 13:04 51.95943 7.29221 23978 ft 411 kts 320°
2026-04-17 13:04 51.98230 7.26417 23972 ft 412 kts 320°
2026-04-17 13:05 52.00512 7.23618 23975 ft 412 kts 320°
2026-04-17 13:05 52.02804 7.20806 23974 ft 412 kts 320°
2026-04-17 13:05 52.05093 7.17993 23976 ft 413 kts 320°
2026-04-17 13:05 52.07383 7.15173 23982 ft 412 kts 320°
2026-04-17 13:06 52.09667 7.12357 23970 ft 411 kts 320°
2026-04-17 13:06 52.11958 7.09529 23725 ft 411 kts 320°
2026-04-17 13:06 52.14197 7.06764 23442 ft 409 kts 320°
2026-04-17 13:06 52.16456 7.03967 23167 ft 407 kts 320°
2026-04-17 13:07 52.18707 7.01177 22895 ft 406 kts 320°
2026-04-17 13:07 52.20975 6.98444 22630 ft 405 kts 323°
2026-04-17 13:07 52.23179 6.95603 22362 ft 399 kts 314°
2026-04-17 13:07 52.25070 6.92407 22098 ft 385 kts 308°
2026-04-17 13:08 52.26768 6.89064 21988 ft 381 kts 305°
2026-04-17 13:08 52.28413 6.85626 21990 ft 383 kts 304°
2026-04-17 13:08 52.30029 6.82174 21991 ft 383 kts 304°
2026-04-17 13:08 52.31638 6.78709 21990 ft 383 kts 304°
2026-04-17 13:09 52.33243 6.75242 22000 ft 382 kts 304°
2026-04-17 13:09 52.34848 6.71769 21990 ft 383 kts 304°
2026-04-17 13:09 52.36435 6.68336 21712 ft 382 kts 304°
2026-04-17 13:09 52.38022 6.64907 21298 ft 374 kts 304°
2026-04-17 13:10 52.39582 6.61546 20918 ft 367 kts 304°
2026-04-17 13:10 52.41116 6.58251 20526 ft 359 kts 304°
2026-04-17 13:10 52.42615 6.55043 20144 ft 350 kts 304°
2026-04-17 13:10 52.44082 6.51916 19759 ft 342 kts 304°
2026-04-17 13:11 52.45522 6.48858 19388 ft 335 kts 304°
2026-04-17 13:11 52.46839 6.45765 19045 ft 325 kts 291°
2026-04-17 13:11 52.47535 6.42269 18703 ft 322 kts 280°
2026-04-17 13:11 52.47946 6.38675 18331 ft 320 kts 276°
2026-04-17 13:12 52.48269 6.35071 17927 ft 318 kts 275°
2026-04-17 13:12 52.48850 6.27906 17134 ft 314 kts 275°
2026-04-17 13:12 52.49093 6.24399 16756 ft 314 kts 273°
2026-04-17 13:13 52.49306 6.20833 16293 ft 313 kts 273°
2026-04-17 13:13 52.49508 6.17267 15796 ft 314 kts 273°
2026-04-17 13:13 52.49707 6.13700 15312 ft 315 kts 273°
2026-04-17 13:13 52.49878 6.10110 14830 ft 315 kts 271°
2026-04-17 13:14 52.50012 6.06521 14357 ft 314 kts 271°
2026-04-17 13:14 52.50133 6.02939 13876 ft 314 kts 271°
2026-04-17 13:14 52.50251 5.99361 13348 ft 313 kts 271°
2026-04-17 13:14 52.50369 5.95791 12835 ft 312 kts 270°
2026-04-17 13:15 52.50490 5.92322 12330 ft 306 kts 271°
2026-04-17 13:15 52.50615 5.88996 11821 ft 271 kts 271°
2026-04-17 13:15 52.50738 5.86009 11379 ft 262 kts 271°
2026-04-17 13:15 52.50860 5.83076 10920 ft 255 kts 271°
2026-04-17 13:16 52.50981 5.80167 10455 ft 254 kts 271°
2026-04-17 13:16 52.51101 5.77279 9989 ft 253 kts 271°
2026-04-17 13:16 52.51221 5.74391 9460 ft 253 kts 271°
2026-04-17 13:16 52.51339 5.71515 8939 ft 252 kts 271°
2026-04-17 13:17 52.51452 5.68661 8434 ft 250 kts 271°
2026-04-17 13:17 52.51561 5.65813 7916 ft 249 kts 271°
2026-04-17 13:17 52.51664 5.62980 7421 ft 248 kts 271°
2026-04-17 13:17 52.51763 5.60162 7063 ft 245 kts 270°
2026-04-17 13:18 52.51857 5.57396 7007 ft 246 kts 271°
2026-04-17 13:18 52.51952 5.54585 7010 ft 247 kts 270°
2026-04-17 13:18 52.52047 5.51770 7009 ft 247 kts 270°
2026-04-17 13:18 52.52142 5.48953 7009 ft 247 kts 270°
2026-04-17 13:19 52.52240 5.46154 7004 ft 240 kts 270°
2026-04-17 13:19 52.52341 5.43439 6997 ft 238 kts 270°
2026-04-17 13:19 52.52443 5.40745 6996 ft 237 kts 271°
2026-04-17 13:19 52.52543 5.38049 6994 ft 236 kts 270°
2026-04-17 13:20 52.52642 5.35340 6811 ft 239 kts 270°
2026-04-17 13:20 52.52739 5.32726 6409 ft 217 kts 270°
2026-04-17 13:20 52.52834 5.30366 6060 ft 204 kts 270°
2026-04-17 13:20 52.52930 5.28055 5739 ft 199 kts 270°
2026-04-17 13:21 52.53027 5.25790 5415 ft 198 kts 270°
2026-04-17 13:21 52.53125 5.23537 5110 ft 197 kts 270°
2026-04-17 13:21 52.53226 5.21293 5002 ft 197 kts 270°
2026-04-17 13:21 52.53327 5.19050 4993 ft 197 kts 270°
2026-04-17 13:22 52.53425 5.16797 5000 ft 198 kts 271°
2026-04-17 13:22 52.53563 5.14543 4995 ft 199 kts 272°
2026-04-17 13:22 52.53710 5.12306 4783 ft 196 kts 272°
2026-04-17 13:22 52.53853 5.10145 4508 ft 189 kts 272°
2026-04-17 13:23 52.53996 5.08010 4237 ft 185 kts 272°
2026-04-17 13:23 52.54141 5.05824 4014 ft 202 kts 272°
2026-04-17 13:23 52.54289 5.03451 3994 ft 218 kts 272°
2026-04-17 13:23 52.54441 5.00824 3962 ft 234 kts 272°
2026-04-17 13:24 52.54597 4.98105 3604 ft 242 kts 271°
2026-04-17 13:24 52.54726 4.95333 3235 ft 244 kts 268°
2026-04-17 13:24 52.54793 4.92543 3007 ft 240 kts 269°
2026-04-17 13:24 52.54893 4.89984 3000 ft 212 kts 269°
2026-04-17 13:25 52.55001 4.87733 2984 ft 185 kts 269°
2026-04-17 13:25 52.55108 4.85651 2990 ft 182 kts 269°
2026-04-17 13:25 52.55216 4.83628 2989 ft 181 kts 269°
2026-04-17 13:25 52.55208 4.81578 2989 ft 178 kts 260°
2026-04-17 13:26 52.55070 4.79566 2996 ft 179 kts 258°
2026-04-17 13:26 52.54856 4.77590 2981 ft 173 kts 240°
2026-04-17 13:26 52.54115 4.76059 2806 ft 171 kts 224°
2026-04-17 13:26 52.53285 4.74700 2548 ft 169 kts 223°
2026-04-17 13:27 52.52443 4.73357 2291 ft 167 kts 222°
2026-04-17 13:27 52.51605 4.72025 2038 ft 167 kts 222°
2026-04-17 13:27 52.50777 4.70736 1980 ft 157 kts 216°
2026-04-17 13:27 52.49747 4.70499 1997 ft 160 kts 166°
2026-04-17 13:28 52.48707 4.71199 1999 ft 162 kts 160°
2026-04-17 13:28 52.47694 4.71920 2031 ft 154 kts 162°
2026-04-17 13:28 52.46675 4.72287 1911 ft 147 kts 178°
2026-04-17 13:28 52.45665 4.72240 1843 ft 144 kts 187°
2026-04-17 13:29 52.44666 4.72105 1778 ft 146 kts 187°
2026-04-17 13:29 52.43652 4.71974 1487 ft 144 kts 187°
2026-04-17 13:29 52.42688 4.71856 1188 ft 134 kts 188°
2026-04-17 13:29 52.41784 4.71748 981 ft 127 kts 190°
2026-04-17 13:30 52.40928 4.71684 889 ft 120 kts 186°
2026-04-17 13:30 52.40101 4.71628 853 ft 120 kts 188°
2026-04-17 13:30 52.39246 4.71513 793 ft 127 kts 189°
2026-04-17 13:30 52.38357 4.71433 634 ft 127 kts 186°
2026-04-17 13:31 52.37488 4.71359 438 ft 124 kts 187°
2026-04-17 13:31 52.36633 4.71243 218 ft 121 kts 186°
2026-04-17 13:31 52.35813 4.71165 52 ft 115 kts 184°
2026-04-17 13:31 52.35129 4.71072 18 ft 75 kts 184°
2026-04-17 13:32 52.34812 4.71050 21 ft 28 kts 182°
2026-04-17 13:32 52.34602 4.71036 19 ft 36 kts 183°